Location: ????????
(55.3155°N, 39.2900°E)
Time: 06:26:10
(UTC+00:00)

USA 215 - Pass Details

Date: 14 April 2024
Orbit: 1100 x 1107 km, 123.0° (Epoch: 22 April)

Event Time Altitude Azimuth Distance (km) Brightness Sun altitude
Rises 01:34:59 0° 90° (E) 3,925 7.4 -6.8°
Reaches altitude 10° 01:37:28 10° 90° (E) 2,966 6.7 -6.5°
Maximum altitude 01:44:01 79° 5° (N) 1,128 3.5 -5.7°
Drops below altitude 10° 01:50:34 10° 280° (W) 2,963 5.0 -4.8°
Sets 01:53:02 0° 280° (W) 3,921 5.6 -4.5°
